| time (UTC) | temp F | wind direction | speed MPH | gust MPH | rain 1hr in | rain 24hr in | rain mn in | humidity % | barometer mb |
| 20260510134513 | 56 | 352 | 0.0 | 3.0 | 0.00 | 0.10 | 0.00 | 94 | 1013.8 |
| 20260510133006 | 54 | 69 | 0.0 | 3.0 | 0.00 | 0.10 | 0.00 | 94 | 1013.7 |
| 20260510131514 | 54 | 161 | 0.0 | 3.0 | 0.00 | 0.10 | 0.00 | 94 | 1013.9 |
| 20260510130026 | 53 | 261 | 0.0 | 3.0 | 0.00 | 0.10 | 0.00 | 94 | 1013.9 |
| 20260510123011 | 52 | 155 | 0.0 | 1.0 | 0.00 | 0.10 | 0.00 | 94 | 1013.4 |
| 20260510121516 | 52 | 155 | 1.0 | 5.0 | 0.00 | 0.10 | 0.00 | 94 | 1013.2 |
| 20260510120016 | 52 | 232 | 0.0 | 3.0 | 0.00 | 0.10 | 0.00 | 94 | 1013.3 |
| 20260510114518 | 51 | 5 | 0.0 | 4.0 | 0.00 | 0.10 | 0.00 | 94 | 1013.0 |
| 20260510113014 | 51 | 112 | 1.0 | 3.0 | 0.00 | 0.10 | 0.00 | 94 | 1012.8 |
| 20260510111523 | 51 | 61 | 0.0 | 3.0 | 0.00 | 0.10 | 0.00 | 93 | 1012.9 |
| 20260510110019 | 51 | 50 | 1.0 | 4.0 | 0.00 | 0.10 | 0.00 | 93 | 1012.8 |
| 20260510104524 | 51 | 51 | 0.0 | 3.0 | 0.00 | 0.10 | 0.00 | 93 | 1012.5 |
| 20260510103013 | 51 | 48 | 0.0 | 2.0 | 0.00 | 0.10 | 0.00 | 93 | 1012.2 |
| 20260510093016 | 51 | 23 | 0.0 | 4.0 | 0.00 | 0.10 | 0.00 | 93 | 1012.0 |
| 20260510091541 | 50 | 322 | 1.0 | 3.0 | 0.00 | 0.10 | 0.00 | 93 | 1012.2 |
| 20260510090021 | 50 | 119 | 1.0 | 4.0 | 0.00 | 0.10 | 0.00 | 93 | 1012.0 |
| 20260510084519 | 49 | 40 | 0.0 | 3.0 | 0.00 | 0.10 | 0.00 | 93 | 1012.0 |
| 20260510083021 | 49 | 5 | 0.0 | 0.0 | 0.00 | 0.10 | 0.00 | 93 | 1011.5 |
| 20260510081534 | 49 | 5 | 0.0 | 0.0 | 0.00 | 0.10 | 0.00 | 93 | 1011.6 |
| 20260510080022 | 50 | 5 | 0.0 | 0.0 | 0.00 | 0.10 | 0.00 | 93 | 1011.5 |
| 20260510074515 | 50 | 5 | 0.0 | 0.0 | 0.00 | 0.10 | 0.00 | 93 | 1011.5 |
| 20260510073031 | 50 | 5 | 0.0 | 2.0 | 0.00 | 0.10 | 0.00 | 93 | 1011.4 |
| 20260510071534 | 49 | 29 | 0.0 | 2.0 | 0.00 | 0.10 | 0.00 | 93 | 1011.3 |
| 20260510070026 | 49 | 60 | 1.0 | 2.0 | 0.00 | 0.10 | 0.00 | 93 | 1011.2 |
| 20260510064542 | 49 | 120 | 0.0 | 0.0 | 0.00 | 0.10 | 0.00 | 93 | 1010.8 |
| 20260510063027 | 49 | 121 | 0.0 | 0.0 | 0.00 | 0.10 | 0.00 | 92 | 1010.7 |
| 20260510061533 | 49 | 120 | 0.0 | 0.0 | 0.00 | 0.10 | 0.00 | 92 | 1010.9 |
| 20260510060032 | 49 | 120 | 0.0 | 0.0 | 0.00 | 0.10 | 0.00 | 92 | 1011.0 |
| 20260510054520 | 49 | 121 | 0.0 | 0.0 | 0.00 | 0.10 | 0.00 | 92 | 1011.2 |
| 20260510053022 | 50 | 120 | 0.0 | 0.0 | 0.00 | 0.10 | 0.00 | 92 | 1011.1 |
| 20260510051525 | 50 | 121 | 0.0 | 0.0 | 0.00 | 0.10 | 0.00 | 92 | 1011.2 |
| 20260510050024 | 49 | 120 | 0.0 | 0.0 | 0.00 | 0.10 | 0.00 | 92 | 1011.4 |
| 20260510044519 | 49 | 121 | 0.0 | 0.0 | 0.00 | 0.10 | 0.00 | 92 | 1011.4 |
| 20260510043024 | 49 | 121 | 0.0 | 0.0 | 0.00 | 0.10 | 0.00 | 92 | 1011.5 |
| 20260510041525 | 49 | 121 | 0.0 | 0.0 | 0.00 | 0.10 | 0.00 | 92 | 1011.6 |
| 20260510040018 | 49 | 121 | 0.0 | 0.0 | 0.00 | 0.10 | 0.00 | 92 | 1011.6 |
| 20260510034519 | 49 | 121 | 0.0 | 0.0 | 0.00 | 0.10 | 0.10 | 92 | 1011.4 |
| 20260510033004 | 50 | 121 | 0.0 | 0.0 | 0.00 | 0.10 | 0.10 | 92 | 1011.3 |
| 20260510024528 | 51 | 121 | 0.0 | 0.0 | 0.01 | 0.10 | 0.10 | 92 | 1011.2 |
| 20260510023009 | 51 | 121 | 0.0 | 0.0 | 0.01 | 0.10 | 0.10 | 92 | 1011.0 |
| 20260510021516 | 52 | 121 | 0.0 | 0.0 | 0.00 | 0.09 | 0.09 | 91 | 1010.9 |
| 20260510020017 | 52 | 121 | 0.0 | 0.0 | 0.00 | 0.09 | 0.09 | 91 | 1011.0 |
| 20260510013006 | 53 | 121 | 0.0 | 1.0 | 0.00 | 0.09 | 0.09 | 91 | 1011.0 |
| 20260510011517 | 54 | 121 | 0.0 | 0.0 | 0.00 | 0.09 | 0.09 | 91 | 1011.0 |
| 20260510010023 | 54 | 121 | 0.0 | 1.0 | 0.00 | 0.09 | 0.09 | 91 | 1010.7 |
| 20260510004523 | 54 | 121 | 0.0 | 0.0 | 0.00 | 0.09 | 0.09 | 91 | 1010.6 |
| 20260510003010 | 55 | 121 | 0.0 | 1.0 | 0.00 | 0.09 | 0.09 | 91 | 1010.6 |
| 20260510001514 | 55 | 121 | 0.0 | 0.0 | 0.00 | 0.09 | 0.09 | 90 | 1010.4 |
| 20260510000025 | 56 | 120 | 0.0 | 0.0 | 0.00 | 0.09 | 0.09 | 91 | 1010.5 |
| 20260509234536 | 56 | 120 | 0.0 | 0.0 | 0.00 | 0.09 | 0.09 | 91 | 1010.6 |
| 20260509233030 | 56 | 121 | 0.0 | 1.0 | 0.00 | 0.09 | 0.09 | 90 | 1010.5 |
| 20260509231519 | 57 | 121 | 0.0 | 2.0 | 0.00 | 0.09 | 0.09 | 90 | 1010.3 |
| 20260509230022 | 57 | 126 | 0.0 | 0.0 | 0.00 | 0.09 | 0.09 | 90 | 1010.3 |
| 20260509224531 | 56 | 126 | 0.0 | 2.0 | 0.00 | 0.09 | 0.09 | 90 | 1010.3 |
| 20260509223018 | 56 | 142 | 1.0 | 3.0 | 0.00 | 0.09 | 0.09 | 90 | 1010.3 |
| 20260509221520 | 56 | 140 | 1.0 | 3.0 | 0.00 | 0.09 | 0.09 | 90 | 1010.4 |
| 20260509220026 | 56 | 106 | 0.0 | 3.0 | 0.08 | 0.09 | 0.09 | 89 | 1010.7 |
| 20260509211521 | 57 | 80 | 0.0 | 3.0 | 0.09 | 0.09 | 0.09 | 86 | 1010.9 |
| 20260509210026 | 57 | 299 | 0.0 | 3.0 | 0.01 | 0.01 | 0.01 | 84 | 1011.2 |
| 20260509203030 | 59 | 305 | 2.0 | 4.0 | 0.00 | 0.00 | 0.00 | 82 | 1010.5 |
| 20260509201523 | 59 | 32 | 2.0 | 6.0 | 0.00 | 0.00 | 0.00 | 83 | 1010.3 |
| 20260509200024 | 59 | 77 | 2.0 | 7.0 | 0.00 | 0.00 | 0.00 | 83 | 1010.5 |
| 20260509194516 | 59 | 298 | 1.0 | 4.0 | 0.00 | 0.00 | 0.00 | 84 | 1010.4 |
| 20260509193020 | 59 | 270 | 2.0 | 8.0 | 0.00 | 0.00 | 0.00 | 81 | 1010.9 |
| 20260509191526 | 59 | 274 | 0.0 | 4.0 | 0.00 | 0.00 | 0.00 | 79 | 1011.1 |
| 20260509190031 | 60 | 34 | 2.0 | 8.0 | 0.00 | 0.00 | 0.00 | 78 | 1011.1 |
| 20260509184526 | 60 | 355 | 1.0 | 7.0 | 0.00 | 0.00 | 0.00 | 78 | 1011.3 |
| 20260509183030 | 60 | 294 | 1.0 | 5.0 | 0.00 | 0.00 | 0.00 | 75 | 1011.4 |
| 20260509181524 | 61 | 306 | 1.0 | 8.0 | 0.00 | 0.00 | 0.00 | 73 | 1011.3 |
| 20260509180027 | 61 | 286 | 2.0 | 5.0 | 0.00 | 0.00 | 0.00 | 72 | 1011.3 |
| 20260509174521 | 61 | 84 | 2.0 | 7.0 | 0.00 | 0.00 | 0.00 | 73 | 1011.1 |
| 20260509173029 | 62 | 295 | 3.0 | 8.0 | 0.00 | 0.00 | 0.00 | 73 | 1011.2 |
| 20260509171533 | 62 | 262 | 2.0 | 6.0 | 0.00 | 0.00 | 0.00 | 69 | 1011.4 |
| 20260509170028 | 62 | 348 | 2.0 | 6.0 | 0.00 | 0.00 | 0.00 | 71 | 1011.4 |
| 20260509161531 | 64 | 248 | 4.0 | 9.0 | 0.00 | 0.00 | 0.00 | 67 | 1011.6 |
| 20260509160029 | 64 | 265 | 1.0 | 12.0 | 0.00 | 0.00 | 0.00 | 67 | 1011.9 |
| 20260509154533 | 64 | 234 | 1.0 | 10.0 | 0.00 | 0.00 | 0.00 | 68 | 1012.1 |
| 20260509150018 | 63 | 177 | 3.0 | 12.0 | 0.00 | 0.00 | 0.00 | 66 | 1012.0 |
| 20260509144523 | 63 | 265 | 2.0 | 12.0 | 0.00 | 0.00 | 0.00 | 67 | 1012.0 |
| 20260509143033 | 64 | 274 | 8.0 | 13.0 | 0.00 | 0.00 | 0.00 | 66 | 1011.9 |